Regional Weather Roundup
Issued by NWS

Home | Current Version | Previous Version | Graphics & Text | Print | Product List | Glossary Off
Versions: 1 2 3 4 5 6 7 8 9 10 11 12 13 14 15 16 17 18 19 20 21 22 23 24 25 26 27 28 29 30 31 32 33 34 35 36 37 38 39 40 41 42 43 44 45 46 47 48 49 50

000
ASUS43 KDMX 070007
RWRIA

WEATHER ROUNDUP FOR IOWA
NATIONAL WEATHER SERVICE DES MOINES IA
600 PM CST FRI MAR 06 2015

NOTE: "FAIR" INDICATES FEW OR NO CLOUDS BELOW 12,000 FEET WITH NO
SIGNIFICANT WEATHER AND/OR OBSTRUCTIONS TO VISIBILITY.

* - THESE STATIONS ARE NOT NWS STATIONS...THUS NOT UNDER NWS
QUALITY CONTROL.  THEY ALSO DO NOT REPORT WEATHER SUCH
AS PRECIPITATION OR FOG.

IAZ001>003-012>014-020>022-031>034-043>046-070100-
   NORTHWEST IOWA

CITY           SKY/WX    TMP DP  RH WIND       PRES   REMARKS
CARROLL *      PTCLDY    46  28  49 NW7       30.09S
CHEROKEE *     CLEAR     45  27  48 N6        30.10S
DENISON *      PTCLDY    48  27  43 N6        30.08S
LE MARS *      CLEAR     45  23  42 N7        30.10F
ORANGE CITY *  CLEAR     45  23  42 NW5       30.10R
SHELDON *      CLEAR     41  27  56 NW5       30.09R
SIOUX CITY     CLEAR     51  22  31 N9        30.09S
6HR MIN TEMP:  51; 6HR MAX TEMP:  62;

SPENCER        CLEAR     39  25  57 NW7       30.10S WCI  34
6HR MIN TEMP:  39; 6HR MAX TEMP:  50;

STORM LAKE *   CLEAR     43  28  56 NW6       30.10S
$$

IAZ055>058-069>071-079>083-090>094-070100-
   SOUTHWEST IOWA

CITY           SKY/WX    TMP DP  RH WIND       PRES   REMARKS
ATLANTIC *     PTCLDY    50  25  37 NW8       30.10R
AUDUBON *      PTCLDY    48  25  40 NW3       30.11R
CLARINDA *     CLEAR     54  19  26 SW5       30.15S
COUNCIL BLFS * CLEAR     55  19  24 W8        30.09S
CRESTON *      CLEAR     50  21  32 SW8       30.12S
HARLAN  *      CLEAR     48  27  43 CALM      30.13S
LAMONI         PTCLDY    49  23  36 SW8       30.14S
6HR MIN TEMP:  47; 6HR MAX TEMP:  55;

RED OAK *      CLEAR     52  21  30 SW8       30.12S
SHENANDOAH *   CLEAR     55  18  22 W7        30.13S
$$

IAZ047>049-059>061-072>074-084-070100-
   CENTRAL IOWA

CITY           SKY/WX    TMP DP  RH WIND       PRES   REMARKS
AMES           PTCLDY    42  30  62 W5        30.08F
6HR MIN TEMP:  37; 6HR MAX TEMP:  49;

ANKENY *       CLEAR     48  23  37 SW6       30.09S
CHARITON *     CLEAR     48  25  40 SW7       30.12F
DES MOINES     PTCLDY    49  23  36 W7        30.10S
6HR MIN TEMP:  43; 6HR MAX TEMP:  56;

GRINNELL*      MOCLDY    43  27  52 S8        30.09F
KNOXVILLE *    CLEAR     50  21  32 SW7       30.10S
MARSHALLTOWN   MOCLDY    40  28  62 SW5       30.08S
6HR MIN TEMP:  32; 6HR MAX TEMP:  43;

PELLA *        PTCLDY    48  27  43 SW6       30.11F
PERRY *          N/A     45  32  61 W10       30.09S
$$

IAZ004>006-015-016-023>025-035-036-070100-
   NORTH CENTRAL IOWA

CITY           SKY/WX    TMP DP  RH WIND       PRES   REMARKS
ALGONA *       PTCLDY    39  39 100 NW12      30.09R WCI  32
CLARION *      PTCLDY    41  34  75 W9        30.08S
ESTHERVILLE    PTCLDY    37  27  67 W12       30.08S WCI  29
6HR MIN TEMP:  37; 6HR MAX TEMP:  46;

FORT DODGE *   PTCLDY    45  30  57 CALM      30.10R
MASON CITY     CLOUDY    37  28  70 NW7       30.08R WCI  32
6HR MIN TEMP:  32; 6HR MAX TEMP:  42;

FOREST CITY *  CLEAR     37  27  65 NW10      30.08R WCI  30
IOWA FALLS *     N/A     37  32  81 SW7       30.08S WCI  32
$$

IAZ007>011-017>019-026>030-037>042-050>054-066-070100-
   NORTHEAST IOWA

CITY           SKY/WX    TMP DP  RH WIND       PRES   REMARKS
CEDAR RAPIDS   PTCLDY    36  27  69 S5        30.09F WCI  32
6HR MIN TEMP:  29; 6HR MAX TEMP:  38;

CHARLES CITY * CLEAR     36  30  80 SW6       30.07F WCI  31
CLINTON *      CLEAR     30  25  80 SW8       30.17S WCI  23
DECORAH *      CLEAR     32  25  74 SW6       30.05S WCI  26
DUBUQUE        CLEAR     29  21  72 SW12      30.09F WCI  19
6HR MIN TEMP:  23; 6HR MAX TEMP:  31;

MONTICELLO *   CLEAR     32  25  74 S5        30.11S WCI  27
OELWEIN *      CLEAR     32  27  80 S10       30.08S WCI  24
WATERLOO       CLOUDY    36  28  73 S7        30.08F WCI  30
6HR MIN TEMP:  29; 6HR MAX TEMP:  38;

$$

IAZ064-065-067-068-078-070100-
   EAST CENTRAL IOWA

CITY           SKY/WX    TMP DP  RH WIND       PRES   REMARKS
DAVENPORT      PTCLDY    34  23  64 S8        30.15F WCI  27
6HR MIN TEMP:  26; 6HR MAX TEMP:  37;

IOWA CITY      PTCLDY    38  27  64 SE5       30.14F WCI  34
6HR MIN TEMP:  30; 6HR MAX TEMP:  41;

MT. PLEASANT * CLEAR     39  27  61 S8        30.16S WCI  34
MUSCATINE *    CLEAR     39  27  60 S8        30.15F WCI  34
QUAD CITIES    CLEAR     35  23  61 S7        30.15F WCI  29
6HR MIN TEMP:  28; 6HR MAX TEMP:  36;

$$

IAZ062-063-075>077-085>089-095>099-070100-
   SOUTHEAST IOWA

CITY           SKY/WX    TMP DP  RH WIND       PRES   REMARKS
BURLINGTON     CLEAR     37  28  70 S7        30.17F WCI  32
6HR MIN TEMP:  31; 6HR MAX TEMP:  43;

FAIRFIELD *    CLEAR     43  25  49 S7        30.14F
FORT MADISON * CLEAR     43  27  52 S6        30.18S
KEOKUK *       CLEAR     45  30  57 S9        30.18S
OSKALOOSA *      N/A     40  26  57 SW8       30.12S
CENTERVILLE *  CLEAR     46  27  46 SW7       30.16S
OTTUMWA        PTCLDY    43  23  45 SW8       30.12F
6HR MIN TEMP:  39; 6HR MAX TEMP:  51;

WASHINGTON *   CLEAR     39  30  70 S9        30.13F WCI  33
$$

ABBREVIATIONS USED IN REMARKS
   TC - TEMPERATURES IN CELSIUS
  WCI - WIND CHILL INDEX
   HX - HEAT INDEX
  VSB - VISIBILITY
$$




USA.gov is the U.S. government's official web portal to all federal, state and local government web resources and services.